Weather in Shebalino

Russia / Altai Republic     51°17′31″N   85°40′27″E
temp.,
°C
wind,
m/s
gust,
m/s
humid.,
%
clouds,
%
prec.,
mm/h
press.,
hPa
HPBL,
m
27 january, wed
wed2701:00−17s348999 0.1 1040126
04:00−15s3593100 0.4 1038204
07:00−13ssw3587100 0.6 1037184
10:00−12s3587100 0.3 1037172
13:00−8s3677100 0.3 1035293
16:00−7ssw3877100 0.0 1033504
19:00−10ssw3482100 0.0 1035115
22:00−10ssw3482100 0.0 103683
28 january, thu
thu2801:00−10ssw3383100 0.0 103687
04:00−9ssw2386100 0.0 103787
07:00−10ssw2387100 0.0 103761
10:00−9ssw2286100 0.0 103781
13:00−6ssw1381100 0.0 1036391
16:00−5sw1479100 0.0 1034546
19:00−10ssw2386100 0.0 103633
22:00−10ssw338499 0.0 103749
29 january, fri
fri2901:00−10ssw338299 0.0 103649
04:00−10ssw338378 0.0 103652
07:00−9ssw338288 0.0 103575
10:00−9ssw3481100 0.0 1034120
13:00−5ssw31174100 0.0 1031557
16:00−5ssw31278100 0.0 1030920
19:00−7ssw31379100 0.0 1032449
22:00−7ssw31278100 0.0 1032524
30 january, sat
sat3001:00−7ssw3685100 0.0 1033250
04:00−8ssw2587100 0.0 1032189
07:00−8ssw2386100 0.1 103394
10:00−8ssw2382100 0.0 103469
13:00−4ssw2472100 0.0 1033393
16:00−4wsw1575100 0.0 1032662
19:00−8ssw2283100 0.0 103424
22:00−9ssw227696 0.0 103522
31 january, sun
sun3101:00−10ssw227168 0.0 103522
04:00−11ssw226927 0.0 103421
07:00−11s226730 0.0 103421
10:00−9s236842 0.0 103229
13:00−3sse227471 0.0 1028134
16:00−3se2281100 0.0 102686
19:00−7s2260100 0.0 102621
22:00−7s2356100 0.0 102421